FENGYUN 1C DEB

Satellite information

Favourite Embed

Satellite Type and Status

DEBRISIN ORBIT

Key statistics

Satellite FENGYUN 1C DEB at a glance.

Uptime

9495

Days in orbit

Revolutions

≈ 14.6

Per day

Orbit

SSO

Sun Synchronous Orbit

Inclination

98.6

Latest

Satellite identification and parameters

Extended collection of information and parameters for FENGYUN 1C DEB.

Object identification

Identified? True

Debris? True

Object name: FENGYUN 1C DEB

International designator: 1999-025EL

Object number (NORAD): 29842

Object ID (CCSDS): 29842

Country: PEOPLES REPUBLIC OF CHINA (PRC)

Current information (Y/N): Y

RCS size: SMALL

Orbital parameters

Period: 98.801 minutes

Inclination: 98.5755 deg

SMA: 7079.499 km

Apoapsis: 782.892 km

Periapsis: 619.835 km

RAAN: 208.3406 deg

Eccentricy: 0.0115161

Argument of periapsis: 120.0484 deg

Mean anomaly: 4.2012 deg

Mean motion: 14.5746796 rev/day

Mean motion (dot): 0.00006182 rev/day2

B* drag term: 0.0012527 1/REarth

Two-line elements (TLE)

Creation date: May 8, 2025, 3:01 a.m.

Reference frame: TEME

Reference center: EARTH

Epoch: May 7, 2025, 6:05 p.m. UTC

TLE line 0: 0 FENGYUN 1C DEB

TLE line 1: 1 29842U 99025EL 25127.75365310 .00006182 00000-0 12527-2 0 9993

TLE line 2: 2 29842 98.5755 208.3406 0115161 120.0484 4.2012 14.57467960961614

Live tracking on map

Real-time ground track for satellite FENGYUN 1C DEB.

In-orbit conjunctions

A list of the most updated potential collisions computed for object FENGYUN 1C DEB.

Target Orbit TCA Probability of collision Miss distance Type
CZ-6A DEB LEO 2025-01-20 22:40:07 0.0001505934 497.0 (m) DEBRIS
SL-8 DEB LEO 2024-11-14 19:20:36 0.0003307839 602.0 (m) DEBRIS
TIROS 8 LEO 2024-09-25 21:38:38 0.001724315 653.0 (m) PAYLOAD

Associated space launch

Chinese polar orbiting meteorological satellite

FENGYUN 1C DEB was lifted into orbit during the mission ‘Long March 4B | Feng Yun 1C’, on board a Long March 4B space rocket.

The launch took place on May 10, 1999, 1:33 a.m. from Launch Complex 7.

For more information about the launch, click the button.

Launch to space Long March 4B | Feng Yun 1C
Long March 4B | Feng Yun 1C

Agency: N/A

Status: Launch Successful

Launch date: May 10, 1999, 1:33 a.m. UTC

Rocket: Long March 4B

Launch pad: Launch Complex 7

Location: Taiyuan Satellite Launch Center, People's Republic of China

...

Latest news about this satellite

There are no fresh news available about this satellite. Check back as we update our databases every day.


Newsletter sign-up

Weekly statistics, charts and insights to help you stay on top of the space industry.